Back to catalog

CZ-6A DEB

AlivePO
NORAD 61796·DEBRIS·🇨🇳 China

Launched Aug 6, 2024 from Taiyuan Satellite Launch Center

Loading…

Next Passes (next 24 hours)

TLE

FreshSource: Space-Track

Epoch: Sep 14, 2026, 09:43 UTC

1 61796U 24140ABL 26257.40534309  .00000529  00000-0  26518-3 0  9991
2 61796  88.7963 247.6428 0072840 290.9863  68.3541 14.13920718105495

Track CZ-6A DEB in real time with AllMySat

Download on the App Store